Location: Seven Kings
(51.5667°N, 0.1000°E)
Time: 03:32:39
(UTC+00:00)

Cosmos 1408 - Pass Details

Date: 29 October 2020
Orbit: 470 x 492 km, 82.6° (Epoch: 27 November)

Event Time Altitude Azimuth Distance (km) Brightness Sun altitude
Rises 18:11:12 0° 351° (N) 2,558 6.3 -15.1°
Reaches altitude 10° 18:13:18 10° 353° (N) 1,677 5.3 -15.4°
Maximum altitude 18:16:58 73° 78° (ENE) 514 2.4 -16.0°
Drops below altitude 10° 18:20:38 10° 164° (SSE) 1,675 5.1 -16.5°
Sets 18:22:44 0° 167° (SSE) 2,554 6.1 -16.9°
